This is the latest recevied weather packets stored in our database for station/object KD5FHA. If no packets are shown the sender has not sent any weather packets the latest 10 day(s).
| Time | Temp. | Humidity | Pressure | Rain* | Wind** | Luminosity | Snow |
|---|---|---|---|---|---|---|---|
| 1778105543 | 16.67° C | 74% | 1013.9 hPa | 0 mm | - | 152 W/m² | - |
| 1778105240 | 16.67° C | 74% | 1014.2 hPa | 0 mm | - | 157 W/m² | - |
| 1778104934 | 16.67° C | 73% | 1014.2 hPa | 0 mm | - | 183 W/m² | - |
| 1778104631 | 16.67° C | 74% | 1014 hPa | 0 mm | - | 172 W/m² | - |
| 1778104327 | 16.67° C | 74% | 1014.1 hPa | 0 mm | - | 199 W/m² | - |
| 1778104023 | 16.67° C | 74% | 1013.7 hPa | 0 mm | - | 166 W/m² | - |
| 1778103721 | 16.67° C | 74% | 1014.3 hPa | 0 mm | - | 141 W/m² | - |
| 1778103419 | 16.11° C | 74% | 1014 hPa | 0 mm | - | 154 W/m² | - |
| 1778103116 | 16.11° C | 74% | 1013.9 hPa | 0 mm | - | 179 W/m² | - |
| 1778102813 | 16.11° C | 74% | 1014.1 hPa | 0 mm | - | 148 W/m² | - |
| 1778102508 | 16.11° C | 74% | 1013.8 hPa | 0 mm | - | 170 W/m² | - |
| 1778102204 | 16.11° C | 73% | 1013.8 hPa | 0 mm | - | 284 W/m² | - |
| 1778101901 | 16.67° C | 74% | 1014 hPa | 0 mm | - | 307 W/m² | - |
| 1778101598 | 16.11° C | 74% | 1013.9 hPa | 0 mm | - | 248 W/m² | - |
| 1778101294 | 16.11° C | 74% | 1013.9 hPa | 0 mm | - | 295 W/m² | - |
| 1778100991 | 16.11° C | 74% | 1014.1 hPa | 0 mm | - | 318 W/m² | - |
| 1778100686 | 15.56° C | 75% | 1014.4 hPa | 0 mm | - | 356 W/m² | - |
| 1778100384 | 16.11° C | 75% | 1014.2 hPa | 0 mm | - | 264 W/m² | - |
| 1778100081 | 16.11° C | 76% | 1014.3 hPa | 0 mm | - | 302 W/m² | - |
| 1778099779 | 15.56° C | 75% | 1014.2 hPa | 0 mm | - | 418 W/m² | - |
| 1778099475 | 16.11° C | 76% | 1014.5 hPa | 0 mm | - | 254 W/m² | - |
| 1778099174 | 16.11° C | 75% | 1014.7 hPa | 0 mm | - | 267 W/m² | - |
| 1778098869 | 16.11° C | 76% | 1014.7 hPa | 0 mm | - | 318 W/m² | - |
| 1778098567 | 15.56° C | 76% | 1014.7 hPa | 0 mm | - | 276 W/m² | - |
| 1778098263 | 15° C | 77% | 1014.6 hPa | 0 mm | - | 297 W/m² | - |
* Rain latest hour (hover to see other rain measurements)
** Current wind speed in m/s (hover to see current wind gust speed)